TimeEST,TemperatureF,Dew PointF,Humidity,Sea Level PressureIn,VisibilityMPH,Wind Direction,Wind SpeedMPH,Gust SpeedMPH,PrecipitationIn,Events,Conditions,WindDirDegrees,DateUTC
12:53 AM,36.0,25.0,64,30.52,10.0,ENE,8.1,-,N/A,,Overcast,70,2012-12-01 05:53:00
1:53 AM,37.0,24.1,59,30.52,10.0,ENE,10.4,-,N/A,,Overcast,70,2012-12-01 06:53:00
2:53 AM,37.0,26.1,65,30.52,10.0,ENE,8.1,-,N/A,,Overcast,70,2012-12-01 07:53:00
3:53 AM,37.0,26.1,65,30.52,10.0,NE,12.7,-,N/A,,Overcast,50,2012-12-01 08:53:00
4:53 AM,37.0,27.0,67,30.52,10.0,ENE,11.5,-,N/A,,Overcast,70,2012-12-01 09:53:00
5:53 AM,37.9,28.0,68,30.53,10.0,East,12.7,-,N/A,,Overcast,90,2012-12-01 10:53:00
6:40 AM,35.6,30.2,81,30.54,8.0,ESE,12.7,-,0.00,Snow,Light Snow,110,2012-12-01 11:40:00
6:53 AM,35.1,32.0,89,30.56,6.0,ESE,9.2,-,0.01,Snow,Light Snow,120,2012-12-01 11:53:00
7:37 AM,33.8,33.8,100,30.57,5.0,East,6.9,-,0.02,Rain,Light Rain,90,2012-12-01 12:37:00
7:53 AM,35.1,34.0,96,30.57,6.0,East,6.9,-,0.03,Rain,Light Rain,90,2012-12-01 12:53:00
8:53 AM,37.0,35.1,93,30.58,10.0,East,8.1,-,0.01,Rain,Light Rain,90,2012-12-01 13:53:00
9:37 AM,37.4,35.6,93,30.58,10.0,East,8.1,-,0.01,Rain,Light Rain,90,2012-12-01 14:37:00
9:53 AM,39.0,37.0,93,30.58,10.0,East,9.2,-,0.01,,Overcast,90,2012-12-01 14:53:00
10:53 AM,39.0,37.0,93,30.56,10.0,East,10.4,-,0.00,,Overcast,100,2012-12-01 15:53:00
11:53 AM,39.9,37.0,89,30.54,10.0,East,6.9,-,N/A,,Overcast,100,2012-12-01 16:53:00
12:01 PM,39.2,37.4,93,30.54,10.0,East,6.9,-,N/A,,Overcast,100,2012-12-01 17:01:00
12:12 PM,39.2,37.4,93,30.53,10.0,East,8.1,-,N/A,,Overcast,90,2012-12-01 17:12:00
12:53 PM,41.0,37.9,89,30.53,10.0,East,6.9,-,N/A,,Overcast,90,2012-12-01 17:53:00
1:53 PM,41.0,37.9,89,30.52,10.0,East,9.2,-,N/A,,Overcast,90,2012-12-01 18:53:00
2:53 PM,42.1,37.9,85,30.52,10.0,East,8.1,-,0.00,,Overcast,100,2012-12-01 19:53:00
3:24 PM,42.8,37.4,81,30.52,10.0,East,10.4,-,N/A,,Overcast,100,2012-12-01 20:24:00
3:48 PM,42.8,39.2,87,30.52,10.0,East,6.9,-,N/A,,Overcast,100,2012-12-01 20:48:00
3:53 PM,42.1,39.0,89,30.52,10.0,East,8.1,-,N/A,,Overcast,100,2012-12-01 20:53:00
4:08 PM,42.8,39.2,87,30.52,10.0,East,9.2,-,N/A,,Overcast,100,2012-12-01 21:08:00
5:53 PM,42.1,39.0,89,30.53,10.0,East,9.2,-,N/A,,Overcast,90,2012-12-01 22:53:00
6:53 PM,43.0,39.9,89,30.53,10.0,ENE,8.1,-,N/A,,Overcast,70,2012-12-01 23:53:00
7:53 PM,43.0,39.9,89,30.51,10.0,East,9.2,-,N/A,,Scattered Clouds,100,2012-12-02 00:53:00
8:53 PM,44.1,41.0,89,30.50,10.0,ESE,10.4,-,N/A,,Scattered Clouds,110,2012-12-02 01:53:00
9:53 PM,45.0,42.1,90,30.49,10.0,ESE,9.2,-,N/A,,Overcast,110,2012-12-02 02:53:00
10:53 PM,46.0,42.1,86,30.48,10.0,ESE,9.2,-,N/A,,Mostly Cloudy,120,2012-12-02 03:53:00
11:53 PM,46.9,43.0,86,30.46,10.0,ESE,8.1,-,N/A,,Overcast,120,2012-12-02 04:53:00